Waarnemingen

Advertentie
Mijn weer
Chievres, België (6432): temperatuur & dauwpunt: 10.07.2019 14:00:00 - 16.07.2019 14:00:00 (CEST)Chievres, België (6432): windsnelheid & windstoten: 10.07.2019 14:00:00 - 16.07.2019 14:00:00 (CEST)Chievres, België (6432): windrichting: 10.07.2019 14:00:00 - 16.07.2019 14:00:00 (CEST)Chievres, België (6432): luchtdruk: 10.07.2019 14:00:00 - 16.07.2019 14:00:00 (CEST)Chievres, België (6432): zicht: 10.07.2019 14:00:00 - 16.07.2019 14:00:00 (CEST)
Datum & Tijd tt [°C] td [°C] ff [km/u] ff [kn] fx [km/u] fx [kn] dd ppp [hPa] vv [km]
16.07.2019 14:00:00 18,9 10,4 4 2 - - N 1020,0 19
16.07.2019 13:00:00 17,5 10,2 4 2 14 8 N 1020,5 15
16.07.2019 12:00:00 16,6 9,8 5 3 14 8 NNW 1020,7 10
16.07.2019 11:00:00 15,1 9,9 5 3 - - NNW 1021,0 10
16.07.2019 10:00:00 14,8 10,3 4 2 7 4 N 1021,1 20
16.07.2019 09:00:00 14,6 10,0 4 2 11 6 N 1021,2 18
16.07.2019 08:00:00 14,3 11,3 4 2 - - N 1020,8 11
16.07.2019 07:00:00 13,6 11,3 4 2 7 4 N 1020,8 9
16.07.2019 06:00:00 13,5 11,3 4 2 7 4 N 1020,6 13
16.07.2019 05:00:00 13,6 10,8 4 2 - - N 1020,6 18
16.07.2019 04:00:00 13,3 11,2 4 2 4 2 N 1020,6 20
16.07.2019 03:00:00 13,8 11,5 4 2 7 4 N 1021,1 20
16.07.2019 02:00:00 13,8 11,8 4 2 - - N 1021,3 20
16.07.2019 01:00:00 14,1 11,7 4 2 11 6 N 1021,2 20
16.07.2019 00:00:00 14,1 11,8 7 4 11 6 N 1021,3 18
15.07.2019 23:00:00 14,3 11,4 7 4 - - N 1021,3 20
15.07.2019 22:00:00 15,5 11,4 11 6 14 8 N 1021,2 20
15.07.2019 21:00:00 16,1 11,7 11 6 22 12 N 1020,8 19
15.07.2019 20:00:00 16,8 11,1 14 8 - - N 1020,7 20
15.07.2019 19:00:00 17,8 10,5 14 8 22 12 N 1020,7 20
15.07.2019 18:00:00 18,1 10,9 9 5 18 10 N 1021,1 10
15.07.2019 17:00:00 17,8 11,6 7 4 - - N 1021,5 19
15.07.2019 16:00:00 18,1 12,2 7 4 22 12 NO 1021,3 18
15.07.2019 15:00:00 17,4 11,8 9 5 18 10 NO 1021,3 10
15.07.2019 14:00:00 16,2 12,0 14 8 - - N 1021,6 17
15.07.2019 13:00:00 17,1 12,1 11 6 18 10 N 1021,5 10
15.07.2019 12:00:00 16,3 11,6 8 4 11 6 NNW 1021,5 10
15.07.2019 11:00:00 15,8 10,6 4 2 - - - 1021,7 10
15.07.2019 10:00:00 15,6 11,4 4 2 7 4 N 1021,7 17
15.07.2019 09:00:00 14,1 12,0 4 2 4 2 N 1021,5 12
15.07.2019 08:00:00 12,3 10,9 4 2 - - N 1021,3 10
15.07.2019 07:00:00 10,6 9,8 0 0 4 2 N 1021,3 9
15.07.2019 06:00:00 8,9 8,1 2 1 4 2 - 1021,3 5
15.07.2019 05:00:00 8,1 7,3 2 1 - - - 1021,2 7
15.07.2019 04:00:00 8,8 7,3 4 2 7 4 N 1021,2 14
15.07.2019 03:00:00 9,3 7,8 4 2 11 6 N 1021,7 15
15.07.2019 02:00:00 9,8 8,2 7 4 - - N 1021,8 18
15.07.2019 01:00:00 11,1 9,0 7 4 11 6 NNW 1022,0 19
15.07.2019 00:00:00 11,8 9,8 7 4 14 8 NNW 1021,8 20
14.07.2019 23:00:00 13,3 10,1 14 8 - - N 1021,7 20
14.07.2019 22:00:00 15,2 11,0 18 10 29 16 N 1021,3 20
14.07.2019 21:00:00 16,6 11,8 14 8 25 14 N 1021,2 20
14.07.2019 20:00:00 17,2 11,6 18 10 - - NNO 1021,1 20
14.07.2019 19:00:00 17,7 11,5 14 8 25 14 NNO 1021,0 20
14.07.2019 18:00:00 18,6 12,0 18 10 29 16 NNO 1020,7 20
14.07.2019 17:00:00 17,3 12,3 18 10 - - N 1021,1 20
14.07.2019 16:00:00 17,7 12,1 14 8 25 14 NNO 1021,2 20
14.07.2019 15:00:00 17,8 11,7 11 6 25 14 N 1021,2 20
14.07.2019 14:00:00 17,8 12,1 14 8 - - NNO 1021,6 20
14.07.2019 13:00:00 15,1 13,8 14 8 29 16 N 1021,8 16
14.07.2019 12:00:00 17,7 13,1 11 6 22 12 NNO 1021,7 20
14.07.2019 11:00:00 15,6 13,2 11 6 - - N 1021,8 18
14.07.2019 10:00:00 14,1 13,1 11 6 14 8 NNO 1021,8 5
14.07.2019 09:00:00 14,2 13,0 7 4 18 10 NO 1021,5 10
14.07.2019 08:00:00 13,9 13,3 5 3 - - NO 1021,2 6
14.07.2019 07:00:00 14,1 12,3 7 4 14 8 N 1020,8 11
14.07.2019 06:00:00 14,0 11,7 4 2 11 6 - 1020,7 10
14.07.2019 05:00:00 14,1 11,2 7 4 - - NNO 1021,1 17
14.07.2019 04:00:00 14,1 11,4 4 2 18 10 N 1021,3 18
14.07.2019 03:00:00 14,2 11,0 7 4 29 16 N 1021,7 19
14.07.2019 02:00:00 14,6 11,9 14 8 - - N 1021,5 19
14.07.2019 01:00:00 12,3 10,7 7 4 14 8 N 1021,7 19
14.07.2019 00:00:00 12,6 11,2 11 6 18 10 N 1021,8 18
13.07.2019 23:00:00 14,6 12,1 14 8 - - N 1021,7 20
13.07.2019 22:00:00 14,7 12,3 11 6 25 14 N 1021,5 18
13.07.2019 21:00:00 16,7 12,1 18 10 32 18 N 1021,1 20
13.07.2019 20:00:00 18,6 13,1 22 12 - - NNW 1020,7 20
13.07.2019 19:00:00 18,5 13,3 14 8 22 12 N 1020,5 20
13.07.2019 18:00:00 18,7 13,8 14 8 25 14 NNW 1020,7 20
13.07.2019 17:00:00 18,5 13,6 16 9 - - NW 1021,0 10
13.07.2019 16:00:00 20,3 14,3 22 12 36 19 NW 1020,8 20
13.07.2019 15:00:00 20,0 14,3 18 10 29 16 NW 1020,5 20
13.07.2019 14:00:00 19,8 14,1 22 12 - - WNW 1020,3 20
13.07.2019 13:00:00 19,2 14,9 11 6 22 12 NW 1020,5 20
13.07.2019 12:00:00 18,4 15,2 14 8 22 12 WNW 1020,6 19
13.07.2019 11:00:00 18,2 14,7 13 7 - - NNW 1020,2 10
13.07.2019 10:00:00 17,5 15,0 11 6 22 12 NNW 1020,2 20
13.07.2019 09:00:00 16,4 15,4 14 8 22 12 NW 1019,8 15
13.07.2019 08:00:00 15,5 15,1 8 4 - - W 1019,5 1,5
13.07.2019 07:00:00 15,3 14,1 4 2 7 4 N 1018,8 11
13.07.2019 06:00:00 14,6 13,7 5 3 11 6 W 1018,8 7
13.07.2019 05:00:00 14,1 13,2 4 2 - - N 1018,5 7
13.07.2019 04:00:00 12,9 11,9 4 2 7 4 N 1018,0 8
13.07.2019 03:00:00 13,7 12,3 4 2 11 6 N 1018,1 9
13.07.2019 02:00:00 13,3 11,9 7 4 - - NW 1018,0 12
13.07.2019 01:00:00 14,1 12,1 7 4 7 4 WNW 1017,7 18
13.07.2019 00:00:00 15,4 12,6 7 4 11 6 WNW 1017,5 20
12.07.2019 23:00:00 16,2 13,0 7 4 - - N 1017,2 20
12.07.2019 22:00:00 16,3 12,6 7 4 18 10 NNW 1016,7 20
12.07.2019 21:00:00 18,8 12,9 11 6 25 14 N 1015,7 20
12.07.2019 20:00:00 20,2 11,6 18 10 - - NNW 1015,2 20
12.07.2019 19:00:00 21,5 12,4 18 10 32 18 NNW 1014,6 20
12.07.2019 18:00:00 22,1 12,0 25 14 36 19 NNW 1014,6 20
12.07.2019 17:00:00 22,3 14,0 22 12 - - NNW 1014,2 20
12.07.2019 16:00:00 20,7 15,1 29 16 40 21 NW 1013,8 10
12.07.2019 15:00:00 23,1 14,7 25 14 40 21 WNW 1013,2 17
12.07.2019 14:00:00 20,7 14,4 18 10 - - WNW 1013,1 16
12.07.2019 13:00:00 23,3 14,7 18 10 29 16 W 1012,7 17
12.07.2019 12:00:00 20,6 15,6 22 12 32 18 W 1012,8 19
12.07.2019 11:00:00 21,3 16,4 11 6 - - WNW 1013,1 17
12.07.2019 10:00:00 18,6 15,3 11 6 18 10 W 1013,2 10
12.07.2019 09:00:00 17,4 14,4 7 4 14 8 WZW 1013,0 9
12.07.2019 08:00:00 15,4 13,6 11 6 - - ZW 1012,7 7
12.07.2019 07:00:00 13,3 12,2 7 4 11 6 ZW 1012,7 6
12.07.2019 06:00:00 13,3 11,3 4 2 11 6 N 1012,5 9
12.07.2019 05:00:00 12,9 10,6 7 4 - - ZZW 1012,5 15
12.07.2019 04:00:00 13,5 10,0 7 4 11 6 WZW 1013,0 19
12.07.2019 03:00:00 14,5 10,2 7 4 11 6 WZW 1013,0 20
12.07.2019 02:00:00 15,6 10,4 11 6 - - WZW 1013,1 20
12.07.2019 01:00:00 15,1 10,6 7 4 11 6 WZW 1013,5 20
12.07.2019 00:00:00 14,6 11,2 4 2 11 6 N 1013,2 20
11.07.2019 23:00:00 16,3 10,9 5 3 - - ZZW 1013,2 10
11.07.2019 22:00:00 20,6 10,5 4 2 7 4 N 1012,7 17
11.07.2019 21:00:00 22,3 12,2 4 2 11 6 N 1012,7 20
11.07.2019 20:00:00 23,5 12,5 7 4 - - WNW 1012,6 19
11.07.2019 19:00:00 24,5 11,7 14 8 29 16 WNW 1012,6 20
11.07.2019 18:00:00 24,7 11,0 18 10 29 16 W 1012,7 20
11.07.2019 17:00:00 25,4 11,7 14 8 - - WZW 1013,1 19
11.07.2019 16:00:00 24,3 12,3 14 8 22 12 WNW 1013,3 10
11.07.2019 15:00:00 23,3 11,9 11 6 25 14 W 1013,6 18
11.07.2019 14:00:00 22,2 11,8 14 8 - - W 1013,6 20
11.07.2019 13:00:00 22,7 11,6 14 8 22 12 WZW 1013,5 20
11.07.2019 12:00:00 22,2 12,8 11 6 14 8 WZW 1013,8 20
11.07.2019 11:00:00 20,7 13,3 7 4 - - ZZW 1013,8 20
11.07.2019 10:00:00 19,2 15,0 9 5 11 6 ZW 1014,2 10
11.07.2019 09:00:00 17,6 15,6 4 2 11 6 N 1014,2 12
11.07.2019 08:00:00 16,8 15,3 4 2 - - N 1014,0 9
11.07.2019 07:00:00 16,1 14,7 4 2 7 4 N 1014,5 10
11.07.2019 06:00:00 16,1 14,2 4 2 11 6 - 1014,6 9
11.07.2019 05:00:00 15,6 14,3 4 2 - - N 1014,7 9
11.07.2019 04:00:00 15,8 14,3 4 2 4 2 N 1015,1 10
11.07.2019 03:00:00 16,2 14,4 2 1 4 2 - 1015,6 10
11.07.2019 02:00:00 16,0 14,5 2 1 - - - 1015,8 10
11.07.2019 01:00:00 15,6 14,0 4 2 4 2 N 1016,3 13
11.07.2019 00:00:00 16,5 14,4 4 2 4 2 N 1016,7 16
10.07.2019 23:00:00 17,8 15,8 5 3 - - Z 1016,8 10
10.07.2019 22:00:00 19,1 16,4 4 2 4 2 N 1017,3 16
10.07.2019 21:00:00 21,0 16,5 4 2 4 2 N 1017,6 20
10.07.2019 20:00:00 21,9 15,3 4 2 - - N 1017,8 18
10.07.2019 19:00:00 23,0 15,8 4 2 7 4 N 1018,2 19
10.07.2019 18:00:00 23,2 12,9 4 2 11 6 N 1018,5 20
10.07.2019 17:00:00 22,4 13,6 7 4 - - N 1018,7 17
10.07.2019 16:00:00 23,2 11,6 4 2 14 8 N 1019,2 19
10.07.2019 15:00:00 23,0 12,8 4 2 18 10 N 1019,7 19
10.07.2019 14:00:00 21,7 11,3 7 4 - - W 1020,2 20

tt = temperatuur
td = dauwpunt
ff = windsnelheid
fx = windstoten
dd = windrichting
ppp = luchtdruk
vv = zicht

Weerstations in de omgeving